Simultaneous Nadir Overpasses (SNOs) Predictions

Prediction of SNOs between AQUA and NPP Satellite Orbit:

Table of predicted SNOs for the next 14.0 days since TLE Epoch: 8/30/2015
Index Date (AQUA) Time (AQUA) Lat,Lon (AQUA) SZA (AQUA ) Date (NPP) Time (NPP) Lat,Lon (NPP) SZA (NPP ) Distance(km) Time Diff (sec)
1 08/31/2015 11:38:37 -70.53, 53.16 85.35 08/31/2015 11:37:49 -70.53, 53.21 85.32 2.20 48
2 08/31/2015 12:27:15 73.04,-134.88 92.04 08/31/2015 12:27:44 73.05,-134.82 91.99 2.37 29
3 09/03/2015 03:54:46 -71.47, 170.52 85.43 09/03/2015 03:54:23 -71.48, 170.58 85.43 2.11 23
4 09/03/2015 04:43:40 73.11, -18.85 92.86 09/03/2015 04:44:35 73.10, -18.92 92.83 2.40 55
5 09/05/2015 19:22:24 69.21, 115.47 97.78 09/05/2015 19:21:11 69.21, 115.48 97.85 0.47 73
6 09/05/2015 20:11:06 -71.75, -73.13 84.81 09/05/2015 20:11:09 -71.74, -73.18 84.80 1.85 3
7 09/05/2015 20:55:29 81.64, 172.85 78.31 09/05/2015 20:56:42 81.08, 172.04 78.04 63.58 73
8 09/08/2015 11:38:24 70.63,-126.65 97.24 09/08/2015 11:37:36 70.64,-126.60 97.27 2.11 48
9 09/08/2015 12:27:10 -72.91, 44.87 85.11 09/08/2015 12:27:38 -72.91, 44.90 85.14 0.79 28
10 09/11/2015 03:54:38 71.26, -9.78 97.52 09/11/2015 03:54:16 71.26, -9.78 97.54 0.05 22




NCC Satellite Simultaneous Nadir Overpasses (SNOs) Prediction Service
